Weather History for Superior, WI

Change the Weather History Date:

Sunday, August 25, 2013

  Actual Average Record
Temperature  
Mean Temperature 85 °F -  
Max Temperature 94 °F 74 °F 94 °F (2013)
Min Temperature 76 °F 55 °F 36 °F (1950)
Cooling Degree Days 20    
Growing Degree Days 35 (Base 50)    
Moisture  
Dew Point 72 °F    
Average Humidity 69    
Maximum Humidity 92    
Minimum Humidity 50    
Precipitation  
Precipitation 0.29 in - - ()
Sea Level Pressure  
Sea Level Pressure 29.90 in    
Wind  
Wind Speed 11 mph (SW)    
Max Wind Speed 22 mph    
Max Gust Speed 46 mph    
Visibility 10 miles    
Events Rain    
Averages and records for this station are not official NWS values.
T = Trace of Precipitation, MM = Missing Value Source: NWS Daily Summary

Daily Weather History Graph

Daily Weather History Graph

Search for Another Location

Airport:

Trip Planner

Search our weather history database for the weather conditions in past years. The results will help you decide how hot, cold, wet, or windy it might be!

Date:

Astronomy

Aug. 25, 2013 Rise Set
Actual Time 6:19 AM CDT 8:00 PM CDT
Civil Twilight 5:47 AM CDT 8:32 PM CDT
Nautical Twilight 5:08 AM CDT 9:10 PM CDT
Astronomical Twilight 4:26 AM CDT 9:53 PM CDT
Moon 10:08 PM CDT (8/25) 11:44 AM CDT (8/25)
Length of Visible Light 14h 44m
Length of Day
13h 40m
Waning Gibbous, 75% of the Moon is Illuminated
Aug 25
Waning Gibbous
Aug 28
Last Quarter
Sep 5
New
Sep 12
First Quarter
Sep 19
Full

Hourly Weather History & Observations

Time (CDT) Temp. Heat Index Dew Point Humidity Pressure Visibility Wind Dir Wind Speed Gust Speed Precip Events Conditions
12:15 AM 80.1 °F 83.3 °F 70.3 °F 72% 29.91 in 10.0 mi SW 11.5 mph - N/A   Overcast
12:35 AM 79.9 °F - 70.3 °F 73% 29.91 in 10.0 mi SW 13.8 mph - N/A   Overcast
12:55 AM 79.0 °F - 70.5 °F 75% 29.91 in 10.0 mi SW 11.5 mph - N/A   Scattered Clouds
1:15 AM 78.4 °F - 70.5 °F 77% 29.91 in 10.0 mi SW 8.1 mph - N/A   Clear
1:35 AM 78.1 °F - 70.3 °F 77% 29.91 in 10.0 mi SW 11.5 mph - N/A   Clear
1:55 AM 77.9 °F - 70.5 °F 78% 29.90 in 10.0 mi SW 10.4 mph - N/A   Clear
2:15 AM 77.9 °F - 70.3 °F 77% 29.90 in 10.0 mi SW 12.7 mph - N/A   Clear
2:35 AM 77.5 °F - 70.3 °F 78% 29.91 in 10.0 mi SW 9.2 mph - N/A   Clear
2:55 AM 77.5 °F - 70.3 °F 78% 29.90 in 10.0 mi SW 11.5 mph - N/A   Clear
3:15 AM 77.2 °F - 70.2 °F 79% 29.90 in 10.0 mi SW 10.4 mph - N/A   Clear
3:35 AM 77.0 °F - 70.2 °F 79% 29.90 in 10.0 mi SW 9.2 mph - N/A   Clear
3:55 AM 77.0 °F - 70.2 °F 79% 29.90 in 10.0 mi SW 11.5 mph - N/A   Clear
4:15 AM 77.0 °F - 70.2 °F 79% 29.90 in 10.0 mi SW 9.2 mph - N/A   Clear
4:35 AM 76.8 °F - 70.2 °F 80% 29.90 in 10.0 mi SW 10.4 mph - N/A   Clear
4:55 AM 76.5 °F - 70.0 °F 80% 29.91 in 10.0 mi SW 10.4 mph - N/A   Clear
5:15 AM 76.5 °F - 70.0 °F 80% 29.91 in 10.0 mi SW 10.4 mph - N/A   Clear
5:35 AM 76.3 °F - 70.0 °F 81% 29.91 in 10.0 mi SW 9.2 mph - N/A   Clear
5:55 AM 76.1 °F - 70.0 °F 81% 29.92 in 10.0 mi SW 8.1 mph - N/A   Clear
6:15 AM 76.1 °F - 70.0 °F 81% 29.92 in 10.0 mi SW 8.1 mph - N/A   Clear
6:35 AM 76.1 °F - 70.0 °F 81% 29.93 in 10.0 mi SW 8.1 mph - N/A   Scattered Clouds
6:55 AM 76.1 °F - 70.0 °F 81% 29.93 in 10.0 mi SW 10.4 mph - N/A   Scattered Clouds
7:15 AM 76.8 °F - 70.2 °F 80% 29.94 in 10.0 mi SW 9.2 mph - N/A   Clear
7:35 AM 77.5 °F - 70.3 °F 78% 29.94 in 10.0 mi SW 12.7 mph - N/A   Clear
7:55 AM 78.4 °F - 70.7 °F 77% 29.94 in 10.0 mi WSW 15.0 mph 19.6 mph N/A   Clear
8:15 AM 79.7 °F - 71.2 °F 75% 29.93 in 10.0 mi SW 13.8 mph 18.4 mph N/A   Clear
8:35 AM 79.5 °F - 71.1 °F 75% 29.92 in 10.0 mi SW 16.1 mph - N/A   Clear
8:55 AM 81.3 °F 85.6 °F 71.6 °F 72% 29.92 in 10.0 mi SW 16.1 mph 23.0 mph N/A   Clear
9:15 AM 80.8 °F 84.7 °F 71.6 °F 73% 29.90 in 10.0 mi SW 17.3 mph 24.2 mph N/A   Clear
9:35 AM 81.5 °F 85.9 °F 71.8 °F 72% 29.91 in 10.0 mi SW 13.8 mph 23.0 mph N/A   Clear
9:55 AM 83.3 °F 88.4 °F 72.0 °F 68% 29.91 in 10.0 mi SW 16.1 mph 24.2 mph N/A   Clear
10:15 AM 84.4 °F 90.0 °F 72.0 °F 66% 29.91 in 10.0 mi WSW 18.4 mph 25.3 mph N/A   Clear
10:35 AM 85.1 °F 91.1 °F 72.0 °F 65% 29.91 in 10.0 mi SW 21.9 mph 26.5 mph N/A   Clear
10:55 AM 86.7 °F 93.7 °F 72.9 °F 63% 29.92 in 10.0 mi WSW 11.5 mph 19.6 mph N/A   Clear
11:15 AM 87.4 °F 94.4 °F 72.7 °F 61% 29.91 in 10.0 mi WSW 13.8 mph - N/A   Clear
11:35 AM 89.2 °F 97.4 °F 73.2 °F 59% 29.91 in 10.0 mi WSW 10.4 mph 18.4 mph N/A   Clear
11:55 AM 89.6 °F 97.7 °F 73.0 °F 58% 29.91 in 10.0 mi SW 6.9 mph 16.1 mph N/A   Clear
12:15 PM 90.7 °F 99.6 °F 73.4 °F 57% 29.91 in 10.0 mi WSW 13.8 mph - N/A   Scattered Clouds
12:35 PM 91.6 °F 100.5 °F 73.4 °F 55% 29.91 in 10.0 mi WSW 15.0 mph 18.4 mph N/A   Scattered Clouds
12:55 PM 92.3 °F 101.5 °F 73.6 °F 54% 29.90 in 10.0 mi WSW 13.8 mph 18.4 mph N/A   Scattered Clouds
1:15 PM 91.8 °F 100.3 °F 72.9 °F 54% 29.90 in 10.0 mi SW 10.4 mph 19.6 mph N/A   Clear
1:35 PM 92.5 °F 101.3 °F 72.9 °F 53% 29.90 in 10.0 mi SSW 13.8 mph 17.3 mph N/A   Clear
1:55 PM 93.0 °F 101.3 °F 72.7 °F 51% 29.90 in 10.0 mi WSW 10.4 mph 16.1 mph N/A   Clear
2:15 PM 93.6 °F 101.9 °F 72.5 °F 50% 29.90 in 10.0 mi SSW 13.8 mph 17.3 mph N/A   Scattered Clouds
2:35 PM 92.3 °F 100.9 °F 72.7 °F 53% 29.90 in 10.0 mi SW 12.7 mph 17.3 mph N/A   Scattered Clouds
2:55 PM 93.6 °F 102.5 °F 72.9 °F 51% 29.89 in 10.0 mi SW 12.7 mph 16.1 mph N/A   Scattered Clouds
3:15 PM 94.1 °F 103.1 °F 72.9 °F 50% 29.89 in 10.0 mi SSW 11.5 mph - N/A   Clear
3:35 PM 93.7 °F 102.3 °F 72.3 °F 50% 29.88 in 10.0 mi SW 10.4 mph - N/A   Clear
3:55 PM 93.6 °F 102.5 °F 72.9 °F 51% 29.89 in 10.0 mi SW 9.2 mph 18.4 mph N/A   Clear
4:15 PM 94.1 °F 103.1 °F 72.9 °F 50% 29.88 in 10.0 mi SW 11.5 mph 18.4 mph N/A   Scattered Clouds
4:35 PM 93.7 °F 102.3 °F 72.5 °F 50% 29.88 in 10.0 mi WSW 11.5 mph - N/A   Scattered Clouds
4:55 PM 93.2 °F 101.7 °F 72.7 °F 51% 29.88 in 10.0 mi WSW 8.1 mph - N/A   Clear
5:15 PM 91.0 °F 98.7 °F 72.5 °F 54% 29.88 in 10.0 mi WSW 6.9 mph - N/A   Clear
5:35 PM 91.4 °F 100.7 °F 73.6 °F 56% 29.88 in 10.0 mi WSW 4.6 mph - N/A   Clear
5:55 PM 92.1 °F 101.1 °F 73.4 °F 54% 29.88 in 10.0 mi WSW 9.2 mph - N/A   Clear
6:15 PM 91.4 °F 100.1 °F 73.4 °F 55% 29.88 in 10.0 mi West 8.1 mph - N/A   Clear
6:35 PM 90.9 °F 100.6 °F 74.3 °F 58% 29.88 in 10.0 mi West 4.6 mph - N/A   Clear
6:55 PM 89.2 °F 98.4 °F 74.1 °F 61% 29.88 in 10.0 mi Calm Calm - N/A   Clear
7:15 PM 88.2 °F 96.9 °F 74.3 °F 63% 29.87 in 10.0 mi SW 4.6 mph - N/A   Clear
7:35 PM 86.2 °F 94.2 °F 73.9 °F 67% 29.88 in 10.0 mi SSW 3.5 mph - N/A   Clear
7:55 PM 83.7 °F 91.0 °F 74.7 °F 74% 29.88 in 10.0 mi SSW 3.5 mph - N/A   Clear
8:15 PM 84.2 °F 91.6 °F 74.1 °F 72% 29.88 in 10.0 mi SSW 4.6 mph - N/A   Clear
8:35 PM 85.8 °F 93.4 °F 73.8 °F 67% 29.90 in 10.0 mi WSW 4.6 mph - N/A   Clear
8:55 PM 85.5 °F 93.0 °F 73.8 °F 68% 29.91 in 10.0 mi WSW 4.6 mph - N/A   Mostly Cloudy
9:15 PM 84.9 °F 92.1 °F 73.9 °F 69% 29.90 in 10.0 mi SW 5.8 mph - N/A   Mostly Cloudy
9:35 PM 82.6 °F 89.1 °F 74.3 °F 76% 29.91 in 10.0 mi West 3.5 mph - N/A   Scattered Clouds
9:55 PM 83.3 °F 89.9 °F 73.9 °F 73% 29.89 in 10.0 mi SW 5.8 mph - N/A   Mostly Cloudy
10:15 PM 81.5 °F 88.0 °F 75.6 °F 82% 29.89 in 10.0 mi WSW 4.6 mph - 0.01 in   Overcast
10:35 PM 77.2 °F - 69.4 °F 77% 29.91 in 1.8 mi SSW 16.1 mph 46.0 mph 0.27 in Rain Heavy Rain
10:55 PM 77.9 °F - 73.6 °F 86% 29.91 in 10.0 mi West 4.6 mph - 0.28 in Rain Light Rain
11:15 PM 78.1 °F - 74.1 °F 88% 29.88 in 10.0 mi SW 5.8 mph - N/A Rain Rain
11:35 PM 78.3 °F - 74.7 °F 89% 29.89 in 10.0 mi West 8.1 mph - 0.01 in Rain Light Rain
11:55 PM 77.9 °F - 75.4 °F 92% 29.90 in 10.0 mi WSW 5.8 mph - 0.01 in   Mostly Cloudy